Location: Hodgeman County Ambulance
(38.0844°N, 99.8949°W)
Time: 06:27:16
(UTC+00:00)

X-37B - Pass Details

Date: 30 September 2021
Orbit: 385 x 389 km, 45.0° (Epoch: 13 October)

Event Time Altitude Azimuth Distance (km) Brightness Sun altitude
Exits shadow 11:20:50 17° 323° (NW) 1,052 2.5 -15.3°
Maximum altitude 11:22:36 29° 14° (NNE) 735 2.2 -15.0°
Drops below altitude 10° 11:25:27 10° 77° (ENE) 1,412 4.8 -14.4°
Sets 11:27:41 0° 89° (E) 2,266 6.4 -14.0°
